Regional Weather Roundup
Issued by NWS

Home | Current Version | Previous Version | Text Only | Print | Product List | Glossary On
Versions: 1 2 3 4 5 6 7 8 9 10 11 12 13 14 15 16 17 18 19 20 21 22 23 24 25 26 27 28 29 30 31 32 33 34 35 36 37 38 39 40 41 42 43 44 45 46 47 48 49 50
000
ASUS46 KLOX 012302
RWRCA

SOUTHERN CALIFORNIA WEATHER ROUNDUP
NATIONAL WEATHER SERVICE OXNARD CALIFORNIA
300 PM PST SUN FEB 01 2015

NOTE: "FAIR" INDICATES FEW OR NO CLOUDS BELOW 12,000 FEET WITH NO
SIGNIFICANT WEATHER AND/OR OBSTRUCTIONS TO VISIBILITY.

  -  STATIONS PRECEEDED BY AN ASTERISK (*) ARE NOT NWS OR FAA
     STATIONS AND ARE NOT SUBJECT TO NWS AND FAA QUALITY CONTROL.

CAZ041-042-087-020000-
LA AND ORANGE COUNTY COASTAL AREAS


CITY           SKY/WX    TMP DP  RH WIND       PRES   REMARKS
L.A. DOWNTOWN  MOSUNNY   71  52  50 VRB5      30.04S
L.A. AIRPORT   PTSUNNY   64  57  78 W13       30.06S
LONG BEACH     PTSUNNY   70  54  56 SW8       30.04F

CITY           SKY/WX    TMP DP  RH WIND       PRES   REMARKS
AVALON           N/A     64 N/A N/A MISG        N/A
FULLERTON      MOSUNNY   76  51  41 W3        30.03S
*GETTY CENTER    N/A    N/A N/A N/A SW7         N/A
HAWTHORNE      MOSUNNY   70  52  52 W8        30.05S
*LEO CARRILLO    N/A     67  58  72 W7          N/A
*LOS ALAMITOS  PTSUNNY   69  57  65 SW7       30.04S
*REDONDO BEACH   N/A     69  57  64 W3        30.06S
SANTA ANA      PTSUNNY   74  54  49 S8        30.04F
STA MONICA APT PTSUNNY   68  48  48 W7        30.06S
*STA MON PIER    N/A     62  58  84 SW5       30.05F
TORRANCE       SUNNY     72  45  37 NW12      30.05F
*UCLA            N/A     68  46  45 SW7       30.03S

$$

CAZ547-548-048-020000-
LA COUNTY VALLEYS AND INLAND EMPIRE


CITY           SKY/WX    TMP DP  RH WIND       PRES   REMARKS
BURBANK        PTSUNNY   75  42  30 S6        30.04F
VAN NUYS       PTSUNNY   76  39  26 CALM      30.04F

CITY           SKY/WX    TMP DP  RH WIND       PRES   REMARKS
CORONA AIRPORT PTCLDY    75  40  28 W7        30.05F
CHINO          PTSUNNY   75  45  34 SW8       30.05F
*CLAREMONT       N/A     72  35  26 W6          N/A
MARCH AFB      SUNNY     71  43  36 W7        30.07S
*NORTHRIDGE      N/A     79  30  17 SE2         N/A
ONTARIO        PTSUNNY   75  38  26 W10       30.05F
*PASADENA        N/A     75  43  31 E2          N/A
POMONA         SUNNY     72  41  33 W8          N/A
RIVERSIDE      MOSUNNY   74  40  29 W7        30.05S
SAN BERNARDINO PTSUNNY   73  32  21 CALM      30.06F
*SAN GABRIEL     N/A     76  37  24 CALM      30.00S
*SAN RAFAEL HI   N/A     74  36  24 E6          N/A
*SAUGUS          N/A     78  27  15 SE5         N/A
*WHITEMAN AP   SUNNY     75  32  20 CALM      30.08F
*WHITTIER HILL   N/A     75  44  32 SW7         N/A
*WOODLAND HILL   N/A     81  30  16 SW2         N/A

$$

CAZ054-055-020000-
LA AND SAN BERNARDINO COUNTY MOUNTAINS


CITY           SKY/WX    TMP DP  RH WIND       PRES   REMARKS
*ACTON           N/A     66  33  29 N13         N/A
*BIG BEAR AIRP CLEAR     54  10  17 E6        30.23S
*BIG PINES       N/A     54  19  25 CALM        N/A
*CHILAO          N/A     61  30  31 SW6         N/A
MT WILSON NWS    N/A     59  34  38 W2          N/A
SANDBERG       MOSUNNY   65  28  24 NE8       30.18F
*WARM SPRINGS    N/A     64  14  14 E12         N/A

$$

CAZ028-029-059-060-099-020000-
ANTELOPE VALLEY AND SURROUNDING AREAS


CITY           SKY/WX    TMP DP  RH WIND       PRES   REMARKS
LANCASTER      PTSUNNY   67  27  22 NE3       30.13F
PALMDALE       PTSUNNY   65  32  29 NE3       30.13F
*POPPY PARK      N/A     71  34  26 E2          N/A

CITY           SKY/WX    TMP DP  RH WIND       PRES   REMARKS
29 PALMS       MOSUNNY   67  32  27 W5        30.17S
BARSTOW/DAGGET MOSUNNY   69  25  19 CALM      30.11F
BISHOP         SUNNY     69  -4   5 S7        30.11F
CHINA LAKE     CLOUDY    66  26  22 CALM      30.12F
EDWARDS AFB    PTSUNNY   66  34  30 E3        30.10F
MOJAVE         FAIR      64  28  25 CALM      30.13F
NEEDLES        SUNNY     72  27  18 NE15      30.07F
VICTORVILLE    PTSUNNY   64  25  22 N6        30.14F

$$

CAZ039-040-020000-
VENTURA AND SANTA BARBARA COUNTY COAST


CITY           SKY/WX    TMP DP  RH WIND       PRES   REMARKS
CAMARILLO      SUNNY     71  50  47 SW8       30.05F
OXNARD AIRPORT SUNNY     69  51  52 W9        30.06S
*POINT MUGU    PTSUNNY   70  56  61 SW5       30.07F
SBA APT/GOLETA SUNNY     69  50  50 CALM      30.06F
*SANTA BARBARA   N/A     74  52  44 SW5       30.13F
*VENTURA         N/A     74  46  37 SW8       30.11S

$$

CAZ044-045-020000-
VENTURA COUNTY VALLEYS


CITY           SKY/WX    TMP DP  RH WIND       PRES   REMARKS
*SIMI VALLEY     N/A     74  50  42 W6        30.02S
*OJAI            N/A     75  45  33 W1        30.01S
*FILLMORE        N/A     76  47  34 CALM      29.95R

$$

CAZ053-020000-
VENTURA COUNTY MOUNTAINS


CITY           SKY/WX    TMP DP  RH WIND       PRES   REMARKS
*LOCKWOOD VLY    N/A     63  18  17 MISG        N/A
*ROSE VALLEY     N/A     72  43  35 MISG        N/A

$$

CAZ034-035-036-020000-
CENTRAL COAST AND SANTA YNEZ VALLEY


CITY           SKY/WX    TMP DP  RH WIND       PRES   REMARKS
SAN LUIS OBISP MOSUNNY   67  49  52 NW16      30.07F
SANTA MARIA    MOSUNNY   70  51  51 W9        30.09S

CITY           SKY/WX    TMP DP  RH WIND       PRES   REMARKS
*CAL POLY SLO    N/A     72  52  49 SW6         N/A
*LOMPOC        MOSUNNY   64  46  52 W9        30.09S
*PISMO BEACH     N/A     63  57  81 SW3       30.09S
*SANTA YNEZ    FAIR      73  45  35 W6        30.07F

$$

CAZ037-038-051-020000-
SAN LUIS OBISPO COUNTY INTERIOR AND CUYAMA VALLEY


CITY           SKY/WX    TMP DP  RH WIND       PRES   REMARKS
*CUYAMA          N/A     71  32  23 CALM      30.08F
PASO ROBLES    MOSUNNY   70  40  33 VRB3      30.09F

$$

CAZ032-033-061-020000-
SOUTHERN DESERTS


CITY           SKY/WX    TMP DP  RH WIND       PRES   REMARKS
BLYTHE         SUNNY     74  37  26 N8        30.05F
IMPERIAL       SUNNY     76  34  21 VRB5      30.03F
PALM SPRINGS   SUNNY     81  26  13 NE5       30.05S
THERMAL        SUNNY     80  32  17 SE5       30.01F

$$

ELSEWHERE ACROSS THE WESTERN UNITED STATES AND MEXICO


CITY           SKY/WX    TMP DP  RH WIND       PRES   REMARKS
DENVER, CO     MOSUNNY   22  16  78 S8        30.14S WCI  12
GRAND CANYON,  SUNNY     51  18  27 SW8       30.19R
HONOLULU, HI   PTSUNNY   81  62  52 E8        29.95F
KAHULUI, MAUI  CLOUDY    73  68  84 N12       29.99F
LAKE TAHOE, CA PTSUNNY   59  26  28 NE5       30.22F
LAS VEGAS, NV  PTSUNNY   63  26  24 S8        30.09F
MAMMOTH LAKES, FAIR      61   7  11 N15       30.24R
MEXICO CITY, M PTSUNNY   70  34  26 SW9       30.18R
PHOENIX, AZ    MOSUNNY   68  47  46 CALM      30.02F
PORTLAND, OR   CLOUDY    43  42  97 E7        30.13S
RENO, NV       PTSUNNY   58  14  17 CALM      30.16F
SALT LAKE CITY CLOUDY    48  28  46 CALM      30.17F
SAN DIEGO, CA  MOSUNNY   70  48  45 NW8       30.06S
SAN FRANCISCO, CLOUDY    61  50  67 CALM      30.11F
SAN JOSE, CA   PTSUNNY   65  42  43 W6        30.11F
SEATTLE, WA    CLOUDY    46  43  89 S7        30.04S
TIJUANA, MEX   SUNNY     70  43  37 W13       30.07

$$

STATION/POSITION TIME  TEMP    WIND        PRES    VSBY  WAVE
                       AIR SEA DIR/SP/G                  HT/PER
                 (UTC) (F)     (DEG/KT/KT) (MB)    (MI)  (FT/S)
POINT ARGUELLO B NOT AVBL
WEST SANTA BARBA 2200   60 60  300/ 12/ 14 1018.3F         4/13
POINT CONCEPTION NOT AVBL
EAST SANTA BARBA NOT AVBL
SANTA MONICA BAY 2300   63 63  300/  4/  6 1018.5F         3/12


USA.gov is the U.S. government's official web portal to all federal, state and local government web resources and services.